Other Public Products
Issued by NWS Grand Forks, ND

Home | Current Version | Previous Version | Text Only | Print | Product List | Glossary Off
Versions: 1 2 3 4 5 6 7 8 9 10 11 12 13 14 15 16 17 18 19 20 21 22 23 24 25 26 27 28 29 30 31 32 33 34 35 36 37 38 39 40 41 42 43 44 45 46 47 48 49 50

000
FPUS83 KFGF 242031
OPUFGF
PRAIRIE TO PINES WEATHER ROUNDUP
NATIONAL WEATHER SERVICE EASTERN NORTH DAKOTA/GRAND FORKS ND
300 PM CDT WED AUG 24 2016

 **SATELLITE DATA USED TO AUGMENT SKY COVER AT AUTOMATED STATIONS**
 *****  WEATHER ACROSS EASTERN NORTH DAKOTA  *****

CITY           SKY/WX    TMP DP  RH WIND       PRES   REMARKS
GRAND FORKS    PTSUNNY   72  52  49 W14G25    29.88R
GRAND FORKS AF PTSUNNY   74  53  49 W17G23    29.89R
GRAND CITY NWS   N/A     72 N/A N/A W7          N/A
BUXTON           N/A     77  55  45 W17         N/A
DEVILS LAKE    PTSUNNY   70  51  51 W20G26    29.91S
FARGO          PTSUNNY   77  54  44 W18       29.93R
WAHPETON ARPT  PTCLDY    73  50  43 W15G23    29.97F
$$

 *****  WEATHER ACROSS CENTRAL AND WESTERN NORTH DAKOTA  *****

CITY           SKY/WX    TMP DP  RH WIND       PRES   REMARKS
JAMESTOWN      CLOUDY    70  52  52 W24G32    29.96R
BISMARCK       PTSUNNY   73  48  41 NW22G29   30.01S
MINOT          MOSUNNY   70  50  49 W26G33    29.92F
MINOT AFB      MOSUNNY   68  49  49 W24G32    29.90F
GARRISON         N/A     66  49  54 W20G33    29.98R
WILLISTON      CLOUDY    64  49  57 W22G29    30.04R
DICKINSON      MOSUNNY   69  42  37 W26G36    30.05S
HETTINGER      MOSUNNY   74  43  32 W24G36    30.09F
$$

 *****  OTHER OBSERVATIONS NORTHEAST NORTH DAKOTA  *****

CITY           SKY/WX    TMP DP  RH WIND       PRES   REMARKS
WALHALLA       FAIR      68  64  88 W7        29.85S
LANGDON        CLOUDY    68  52  56 W17G25    29.88S
CAVALIER       FAIR      72  50  46 W15G24    29.85S
GRAFTON        MOCLDY    72  54  53 W14G23    29.88S
CANDO          MOCLDY    68  50  52 W22G29    29.91F
FORT TOTTEN      N/A     67  49  51 W9        29.95S
ROLLA          CLOUDY    63  50  63 W13       29.89S
RUGBY          NOT AVBL
 ***** THE ABOVE OBSERVATIONS ARE NON NWS ARE NOT QUALITY
        CONTROLLED AND MAY MIS-REPORT RAIN FOR SNOW...
$$

 *****  OTHER OBSERVATIONS SOUTHEAST NORTH DAKOTA *****

CITY           SKY/WX    TMP DP  RH WIND       PRES   REMARKS
COOPERSTOWN    NOT AVBL
VALLEY CITY    CLOUDY    70  52  52 W18       29.98R
OAKES            N/A    N/A N/A N/A MISG        N/A
GWINNER        FAIR      75  54  46 W18G26    29.99S
BUFFALO          N/A     72  47  40 W17         N/A
WYNDMERE       NOT AVBL
 ***** THE ABOVE OBSERVATIONS ARE NON NWS ARE NOT QUALITY
       CONTROLLED AND MAY MIS-REPORT RAIN FOR SNOW...
$$

  *****  WEATHER ACROSS NORTHERN MINNESOTA  *****

CITY           SKY/WX    TMP DP  RH WIND       PRES   REMARKS
FLAG ISLAND    SUNNY     73  52  46 W6        29.78S HAZE
WARROAD        MOSUNNY   72  57  60 W17       29.83S
ROSEAU         MOSUNNY   75  55  50 SW13G20   29.83F
HALLOCK        CLOUDY    73  48  40 W13G21    29.84S
THF RVR FALLS  MOSUNNY   73  52  47 W21       29.89R
HALSTAD          N/A     73  52  47 W16         N/A
FOSSTON        CLOUDY    72  54  53 W18       29.92R
BAUDETTE       SUNNY     75  54  47 W15       29.82S
WASKISH        SUNNY     73  57  56 W15G22    29.86S
CROOKSTON      PTSUNNY   72  52  49 W18G25    29.90R
$$
  *****  WEATHER ACROSS CENTRAL AND WEST MINNESOTA  *****

CITY           SKY/WX    TMP DP  RH WIND       PRES   REMARKS
BEMIDJI        PTSUNNY   74  55  52 SW16      29.90S
PARK RAPIDS    MOSUNNY   74  54  49 W17G25    29.93R
WADENA         CLOUDY    72  55  56 W13G20    29.94S
DETROIT LAKES  MOSUNNY   72  54  53 W15       29.96R
MOORHEAD       MOSUNNY   75  54  46 W18       29.95R
FERGUS FALLS   MOSUNNY   73  55  53 W17       29.98S
ELBOW LAKE     FAIR      72  57  58 W16G24    29.98S
MORRIS MN      MOSUNNY   77  55  47 W17G23    29.98R
STAPLES        PTSUNNY   75  52  43 W16       29.93F
WHEATON        MOSUNNY   75  57  53 W15G22    30.00S
$$
  *****  WEATHER ELSEWHERE ACROSS MINNESOTA  *****

CITY           SKY/WX    TMP DP  RH WIND       PRES   REMARKS
DULUTH         MOSUNNY   82  53  36 W16G25    29.85R
INTRNTL FALLS  MOSUNNY   78  54  43 W13G18    29.79S
ELY            SUNNY     79  54  41 W14G21    29.81S
CLOQUET        SUNNY     81  46  30 W12G20    29.87R
BRAINERD       CLOUDY    76  52  43 W17G25    29.92R
HIBBING        SUNNY     77  51  40 W13G21    29.85R
ALEXANDRIA     PTSUNNY   75  55  49 W18       29.98F
SAINT CLOUD    CLOUDY    77  53  43 W15G25    29.93S
MINNEAPOLIS    CLOUDY    80  58  46 W13       29.93S
$$

  *****  WEATHER ACROSS SOUTH DAKOTA  *****

CITY           SKY/WX    TMP DP  RH WIND       PRES   REMARKS
SIOUX FALLS    PTSUNNY   75  58  55 NW9       30.05S
BROOKINGS      CLOUDY    72  55  55 NW16      30.02F
WATERTOWN      CLOUDY    73  51  46 W17       30.03F
HURON          CLOUDY    79  51  37 NW15      30.04F
SISSETON         N/A     74  54  49 NW16G23   29.98S
ABERDEEN       CLOUDY    76  51  41 W14       30.02F
MITCHELL       CLOUDY    73  56  54 NW12      30.06S
PIERRE         PTSUNNY   75  47  36 W10       30.07F
MOBRIDGE       MOSUNNY   79  47  32 W15G26    30.03F
RAPID CITY     SUNNY     74  44  34 VRB5      30.16F
$$

  *****  SOME WEATHER IN NEARBY STATES *****

CITY           SKY/WX    TMP DP  RH WIND       PRES   REMARKS
GLASGOW MT     CLOUDY    57  47  69 NW25      30.17S
GREAT FALLS MT CLOUDY    61  39  44 N8        30.36R
CHEYENNE WY    CLOUDY    63  44  50 S16G25    30.25F
SCOTTSBLUFF NE CLOUDY    70  44  39 E7        30.18F
OMAHA NE       CLOUDY    80  63  55 N7        30.01R
DES MOINES IA  CLOUDY    84  71  65 W8        29.96F
DAVENPORT IA   SUNNY     85  71  63 W15G22    29.96R HX  90
CHICAGO IL     CLOUDY    80  72  76 W8        29.91F
EAU CLAIRE WI  CLOUDY    77  67  71 W9        29.90R
LA CROSSE WI   PTSUNNY   84  32  15 VRB6      29.90R
$$

  *****  SOME NATIONAL WEATHER *****

CITY           SKY/WX    TMP DP  RH WIND       PRES   REMARKS
LA GUARDIA NY  MOSUNNY   86  60  41 S18       30.18F
RALEIGH NC     CLOUDY    85  62  46 E3        30.24F
ATLANTA GA     LGT RAIN  75  74  96 S6        30.24F
NEW ORLEANS LA CLOUDY    93  75  55 S9        30.09F HX 104
OKLAHOMA CITY  MOSUNNY   94  66  39 S18G25    30.00F HX  97
ALBUQUERQUE NM MOSUNNY   76  47  35 W6        30.20F
SALT LAKE CITY MOSUNNY   81  20  10 NW21G29   30.13F
LOS ANGELES CA SUNNY     74  62  66 W13       30.01F
BOISE ID       SUNNY     79  36  21 W12G20    30.13F
SEATTLE WA     MOSUNNY   79  55  43 N7        30.22F
$$

*** WEATHER ACROSS MANITOBA...SASKATCHEWAN AND ONTARIO ***
                ***ONTARIO***

CITY           SKY/WX    TMP DP  RH WIND       PRES   REMARKS
GERALDTON      PTSUNNY   77  63  61 S14G22    29.73F
THUNDER BAY    MOSUNNY   81  68  65 S10       29.72S
SIOUX LOOKOUT  PTSUNNY   75  61  60 NW8       29.74
TORONTO        PTSUNNY   86  59  39 S18G25    30.04F
BIG TROUT LK   CLOUDY    57  48  72 E6        29.89R
PICKLE LAKE    LGT RAIN  59  57  94 NE9       29.77R
DRYDEN         MOSUNNY   77  59  53 W15G29    29.76R
KENORA         MOSUNNY   75  54  46 W7        29.78S
$$
                *** MANITOBA***

CITY           SKY/WX    TMP DP  RH WIND       PRES   REMARKS
BRANDON        PTSUNNY   64  55  72 W17G25    29.81R
DAUPHIN        CLOUDY    66  61  82 N14       29.78R
ISLAND LAKE    PTSUNNY   64  50  59 NE13G20   29.91R
PILOT MOUND      N/A     66  52  59 SW18G25     N/A
THE PAS        PTSUNNY   66  50  55 NE5       29.98S
THOMPSON       MOSUNNY   66  45  45 N8        29.99F
WINNIPEG       PTSUNNY   70  52  52 W14       29.79S
LYNN LAKE      MOSUNNY   72  48  43 MISG      30.04S
CHURCHILL      PTSUNNY   55  43  62 NE5       29.96F
GILLAM         MOSUNNY   64  43  45 NW2       29.96F
$$
                ***SASKATCHEWAN***

CITY           SKY/WX    TMP DP  RH WIND       PRES   REMARKS
ESTEVAN        PTSUNNY   63  52  67 W21G29    29.94S
KINDERSLEY     PTSUNNY   63  46  55 NW7       30.22S
LLOYDMINSTER   PTSUNNY   70  41  35 N13       30.22S
PRINCE ALBERT  PTSUNNY   68  50  52 NE12G18   30.09S
REGINA         CLOUDY    55  50  82 N18G36    30.04R
YORKTON        LGT RAIN  54  52  94 N21G26    29.91R
N. BATTLEFORD  PTSUNNY   68  45  42 N15G22    30.19S   C1F1C2F2C3F3C4F4C5F5C6F6C7F7C8F8C9F9CaFaCbFbCcFcCdFdCe!



USA.gov is the U.S. government's official web portal to all federal, state and local government web resources and services.